[[{"header":{"parameterUnit":"m.s-1","parameterCategory":1,"la1":30.2991,"la2":30.254,"lo1":-89.0895,"lo2":-89.0444,"dy":0.0017,"dx":0.0017,"nx":28,"ny":28,"refTime":"2023-08-10T03:00:00:Z","depth":0,"parameterNumber":2,"parameterNumberName":"U-component_of_WINDS"},"data":[0,0,0,0,0,0,0,0,0,0,0,0,0,0,0,0,0,0,0,0,0,0,0,0,0,0,0,0,0,0,0,0,0,0,0,0,0,0,0,0,0,0,0,0,0,0,0,0,0,0,0,0,0,0,0,0,0,0,5.4893,5.4895,0,5.5007,5.5009,5.501,5.4947,5.4944,5.494,5.4937,5.5053,5.5058,5.5064,0,0,0,0,0,0,0,0,0,0,0,0,0,5.4616,5.4621,5.4893,5.4895,5.4896,5.5007,5.5009,5.501,5.4947,5.4943,5.494,5.4936,5.5051,5.5058,5.5065,0,0,0,0,0,0,0,0,0,0,0,0,0,5.4734,5.4623,5.4893,5.4878,5.4878,5.5007,5.5009,5.5011,5.4948,5.4943,5.4939,5.4934,5.5048,5.5057,5.5066,5.5216,0,0,5.5093,5.5097,0,0,0,0,0,0,0,0,5.4727,5.4744,5.4879,5.4879,5.4879,5.4958,5.4953,5.5079,5.4949,5.4921,5.4937,5.4932,5.5025,5.5035,5.5067,5.5221,5.5226,5.5094,5.51,5.5103,5.5106,0,0,0,0,0,0,0,5.4719,5.4739,5.4938,5.4881,5.4881,5.4864,5.4876,5.4977,5.4998,5.4923,5.4919,5.4934,5.5024,5.5059,5.5069,5.5228,5.5094,5.5102,5.5107,5.5111,5.5504,5.5509,0,0,0,0,0,0,5.4712,5.4732,5.4935,5.4942,5.479,5.4873,5.4886,5.4937,5.4997,5.5001,5.4937,5.493,5.5046,5.5059,5.5073,5.5248,5.5103,5.5112,5.5117,5.5499,5.5505,5.5511,0,0,0,0,0,0,5.4707,5.4731,5.493,5.4836,5.486,5.4883,5.4941,5.4942,5.4977,5.5007,5.501,5.4969,5.5042,5.506,5.5179,5.5251,5.5116,5.5124,5.5493,5.5501,5.5508,5.5601,0,0,0,0,0,0,5.4699,5.4729,5.4788,5.4838,5.4865,5.5036,5.4946,5.4948,5.4993,5.4984,5.5038,5.5042,5.504,5.5166,5.5188,5.5261,5.5131,5.5487,5.5496,5.5505,5.5592,5.5611,5.5628,0,0,0,0,0,5.4689,5.481,5.4791,5.4816,5.4939,5.5041,5.5056,5.5051,5.4999,5.5056,5.5075,5.5041,5.524,5.5179,5.5203,5.528,5.5482,5.5494,5.5505,5.5584,5.5607,5.5627,0,0,0,0,0,0,5.4769,5.4817,5.4796,5.4937,5.4985,5.503,5.5102,5.5077,5.5141,5.513,5.5121,5.5134,5.5257,5.5281,5.5212,5.5425,5.5353,5.5369,5.5404,5.5427,5.5445,5.5435,5.5138,0,0,0,0,0,5.4803,5.4882,5.492,5.5041,5.5066,5.508,5.5124,5.5116,5.5165,5.5185,5.5213,5.5261,5.5334,5.5383,5.5452,5.5596,5.5604,5.566,5.5678,5.5692,5.5706,5.5778,5.5802,5.5548,5.5548,5.5548,0,0,5.4874,5.491,5.4961,5.5057,5.5093,5.5173,5.5098,5.5187,5.5245,5.5199,5.5311,5.5334,5.5386,5.5517,5.5576,5.5541,5.5778,5.5707,5.5718,5.5724,5.5793,5.5817,5.5838,5.5556,5.5554,5.5553,0,0,5.5042,5.508,5.5182,5.522,5.5275,5.5283,5.5308,5.5356,5.5368,5.5482,5.5447,5.5516,5.5643,5.568,5.5716,5.5896,5.5865,5.5919,5.6011,5.6082,5.6102,5.612,5.6179,5.6201,5.5933,5.5934,5.5934,0,5.5123,5.5244,5.5238,5.5329,5.537,5.5332,5.5433,5.5469,5.5545,5.5573,5.5533,5.5689,5.5722,5.5858,5.5902,5.5934,5.5958,5.5912,5.61,5.6118,5.6134,5.619,5.6213,5.5939,5.5939,5.5938,5.5938,0,5.5338,5.5422,5.5498,5.557,5.562,5.5717,5.5723,5.5774,5.5762,5.5773,5.5886,5.5925,5.5999,5.6031,5.6021,5.6165,5.6141,5.6101,5.6027,5.6164,5.6217,5.6239,5.5948,5.5946,5.5944,5.5943,0,0,5.556,5.5626,5.5653,5.5683,5.5741,5.5804,5.5897,5.5969,5.6011,5.6065,5.6139,5.6246,5.6208,5.6249,5.6242,5.6305,5.6438,5.6256,5.6257,5.6285,5.6594,5.662,5.6646,5.6419,5.6423,5.6427,5.6588,0,5.5729,5.5891,5.5887,5.6037,5.6111,5.6074,5.6154,5.6196,5.621,5.6273,5.6288,5.6362,5.6309,5.6332,5.6393,5.6409,5.6499,5.6398,5.6485,5.6488,5.6469,5.6674,5.6704,5.6854,5.6609,5.6612,5.6615,0,5.5948,5.6006,5.6163,5.6205,5.6236,5.6309,5.6372,5.6435,5.6481,5.6485,5.6529,5.6511,5.6602,5.6528,5.6651,5.6582,5.6617,5.663,5.6636,5.664,5.6557,5.668,5.6902,5.6923,5.6648,5.6646,5.6643,0,5.6088,5.6207,5.6314,5.6342,5.6395,5.6445,5.647,5.6511,5.6553,5.6609,5.6635,5.6701,5.6736,5.6786,5.6785,5.6732,5.6907,5.6835,5.691,5.691,5.6946,5.6943,5.7172,5.6976,5.6976,5.6975,5.6975,0,5.6275,5.6371,5.6377,5.6443,5.6548,5.6542,5.6646,5.6665,5.6702,5.6768,5.6742,5.6805,5.6801,5.6865,5.6865,5.6963,5.698,5.6984,5.6982,5.6984,5.6983,5.7004,5.6992,5.6981,5.698,5.6979,5.6978,0,5.6448,5.6457,5.6571,5.6611,5.6623,5.6698,5.6731,5.6792,5.6803,5.6887,5.6907,5.6922,5.6995,5.6999,5.7084,5.7083,5.7201,5.719,5.7186,5.7182,5.7255,5.7247,5.7503,5.7534,5.7322,5.7324,5.7326,0,5.6565,5.6637,5.6685,5.6727,5.6754,5.6824,5.6866,5.6862,5.6907,5.6962,5.7016,5.7086,5.7141,5.7259,5.7276,5.7339,5.7326,5.7412,5.7336,5.7334,5.7322,5.7316,5.732,5.7426,5.7428,5.743,5.7431,0,5.6769,5.6769,5.6831,5.6894,5.6945,5.6995,5.7041,5.7077,5.7078,5.7129,5.7202,5.7245,5.733,5.7398,5.7459,5.7482,5.7455,5.7456,5.7475,5.7476,5.7468,5.7468,5.7221,5.7449,5.7447,5.7446,5.7445,5.7444,5.6914,5.6975,5.7017,5.7086,5.712,5.7162,5.722,5.7237,5.7298,5.7366,5.736,5.7441,5.7481,5.756,5.7587,5.7648,5.7619,5.7649,5.7656,5.7662,5.7667,5.7462,5.766,5.7659,5.7659,5.7659,5.7658,0,5.7113,5.7137,5.7201,5.7265,5.7318,5.7291,5.7339,5.7385,5.7456,5.7496,5.755,5.7632,5.7697,5.7719,5.7782,5.7826,5.7815,5.7842,5.7837,5.7841,5.7693,5.7667,5.785,5.785,5.785,5.785,5.7849,5.7849,5.7222,5.7322,5.7327,5.7442,5.7465,5.7543,5.7572,5.761,5.7642,5.7734,5.7788,5.7802,5.7834,5.7898,5.7955,5.796,5.7982,5.8013,5.8012,5.7872,5.7853,5.7834,5.7809,5.8019,5.8019,5.8155,5.8156,5.8157]},{"header":{"parameterUnit":"m.s-1","parameterCategory":1,"la1":30.2991,"la2":30.254,"lo1":-89.0895,"lo2":-89.0444,"dy":0.0017,"dx":0.0017,"nx":28,"ny":28,"refTime":"2023-08-10T03:00:00:Z","depth":0,"parameterNumber":3,"parameterNumberName":"V-component_of_WINDS"},"data":[0,0,0,0,0,0,0,0,0,0,0,0,0,0,0,0,0,0,0,0,0,0,0,0,0,0,0,0,0,0,0,0,0,0,0,0,0,0,0,0,0,0,0,0,0,0,0,0,0,0,0,0,0,0,0,0,0,0,3.8246,3.8248,0,3.8375,3.8376,3.8378,3.838,3.8378,3.8376,3.8375,3.8504,3.8509,3.8514,0,0,0,0,0,0,0,0,0,0,0,0,0,3.7998,3.8002,3.8246,3.8248,3.8249,3.8375,3.8376,3.8378,3.838,3.8378,3.8376,3.8374,3.8502,3.8508,3.8514,0,0,0,0,0,0,0,0,0,0,0,0,0,3.8114,3.8004,3.8246,3.8265,3.8268,3.8374,3.8376,3.8379,3.838,3.8378,3.8376,3.8373,3.85,3.8508,3.8515,3.8609,0,0,3.8537,3.8541,0,0,0,0,0,0,0,0,3.8107,3.8123,3.8261,3.8264,3.8268,3.8359,3.8336,3.8456,3.8381,3.8338,3.8375,3.8372,3.8457,3.8468,3.8498,3.8615,3.862,3.8538,3.8543,3.8546,3.8548,0,0,0,0,0,0,0,3.8099,3.8117,3.8297,3.8263,3.8267,3.8266,3.828,3.8359,3.8409,3.8341,3.8342,3.8357,3.8459,3.849,3.8501,3.8622,3.8538,3.8544,3.8549,3.8552,3.8821,3.8823,0,0,0,0,0,0,3.8088,3.8111,3.8293,3.8301,3.818,3.8273,3.8288,3.8332,3.8409,3.8418,3.8359,3.8357,3.8479,3.8492,3.8505,3.8619,3.8546,3.8553,3.8557,3.8818,3.8821,3.8824,0,0,0,0,0,0,3.8082,3.8104,3.8288,3.8206,3.8229,3.828,3.8329,3.8336,3.8367,3.8422,3.8431,3.8382,3.8478,3.8495,3.8583,3.8623,3.8556,3.8563,3.8815,3.8819,3.8823,3.8848,0,0,0,0,0,0,3.8075,3.8102,3.814,3.8207,3.8234,3.8365,3.8331,3.834,3.8381,3.8379,3.8446,3.8455,3.8477,3.8572,3.859,3.8632,3.8569,3.8811,3.8817,3.8821,3.8844,3.8852,3.886,0,0,0,0,0,3.8066,3.8141,3.8141,3.8163,3.8282,3.8367,3.8382,3.8407,3.8384,3.8421,3.8456,3.8453,3.8616,3.8581,3.8601,3.8647,3.8809,3.8815,3.8821,3.884,3.8851,3.886,0,0,0,0,0,0,3.8077,3.8151,3.8152,3.8251,3.8303,3.8367,3.8415,3.8417,3.8476,3.8472,3.8499,3.8514,3.8601,3.8633,3.8592,3.874,3.8709,3.872,3.8717,3.8727,3.8735,3.8726,3.8575,0,0,0,0,0,3.8091,3.8155,3.8216,3.8297,3.8323,3.8365,3.8403,3.8417,3.8471,3.8493,3.8534,3.8586,3.8649,3.869,3.8751,3.8848,3.8862,3.8889,3.8897,3.8903,3.8912,3.8964,3.8976,3.8844,3.8844,3.8844,0,0,3.8121,3.8169,3.8208,3.8301,3.8343,3.8407,3.8383,3.8453,3.85,3.8503,3.8589,3.8621,3.868,3.8773,3.8816,3.8802,3.8951,3.8911,3.8916,3.8921,3.8971,3.8983,3.8994,3.8848,3.8847,3.8847,0,0,3.8207,3.8251,3.8323,3.8365,3.8429,3.8455,3.8472,3.8536,3.8558,3.8644,3.8647,3.8703,3.8811,3.8853,3.8888,3.8988,3.8987,3.9007,3.9049,3.9099,3.9109,3.9119,3.9153,3.9165,3.9016,3.9016,3.9016,0,3.8236,3.8334,3.8359,3.8429,3.8469,3.8475,3.8546,3.8586,3.8666,3.8692,3.8676,3.881,3.8851,3.8952,3.8976,3.9005,3.9024,3.9,3.9106,3.9116,3.9125,3.9158,3.9171,3.9018,3.9017,3.9017,3.9017,0,3.8365,3.8433,3.8483,3.8561,3.8606,3.8677,3.8711,3.8753,3.8763,3.8791,3.8877,3.8926,3.8996,3.9021,3.9031,3.9123,3.9112,3.9101,3.907,3.9139,3.917,3.9183,3.902,3.902,3.9019,3.9019,0,0,3.8463,3.8552,3.857,3.8605,3.8674,3.8727,3.8796,3.8865,3.89,3.8955,3.9012,3.9103,3.9092,3.9132,3.9146,3.919,3.9264,3.9173,3.9175,3.9187,3.9366,3.9374,3.9389,3.9264,3.9266,3.9268,3.9361,0,3.8557,3.8682,3.8705,3.8813,3.8875,3.888,3.8941,3.8989,3.9016,3.9071,3.9101,3.9164,3.9145,3.9169,3.9213,3.9246,3.93,3.924,3.9316,3.9319,3.9301,3.9405,3.9415,3.95,3.9374,3.9376,3.9377,0,3.8683,3.874,3.8854,3.8914,3.8941,3.8995,3.9059,3.9112,3.9166,3.9182,3.9226,3.9235,3.9305,3.9272,3.9368,3.9326,3.9358,3.9379,3.9383,3.939,3.9352,3.9415,3.9528,3.954,3.9397,3.9395,3.9394,0,3.8741,3.8847,3.8929,3.8958,3.903,3.9067,3.9099,3.915,3.9189,3.9245,3.927,3.9333,3.9367,3.9414,3.9439,3.9412,3.9533,3.9501,3.9547,3.9546,3.9572,3.957,3.9691,3.9594,3.9594,3.9594,3.9593,0,3.8843,3.8912,3.8956,3.9006,3.9083,3.9108,3.9183,3.9214,3.9259,3.9314,3.9322,3.9373,3.9404,3.9458,3.9478,3.9554,3.9569,3.9583,3.9588,3.9583,3.9581,3.9604,3.9598,3.9597,3.9596,3.9596,3.9595,0,3.8921,3.8954,3.9043,3.9103,3.912,3.9174,3.9224,3.9272,3.9299,3.9368,3.9385,3.9427,3.9492,3.9521,3.9601,3.9614,3.97,3.97,3.9682,3.9683,3.9727,3.9722,3.9867,3.9886,3.9777,3.9778,3.9779,0,3.8984,3.9037,3.9103,3.914,3.9173,3.9233,3.9273,3.9299,3.934,3.9404,3.9444,3.9509,3.9563,3.9666,3.9702,3.9762,3.9764,3.981,3.9773,3.9765,3.9763,3.9759,3.9764,3.9817,3.9818,3.9819,3.982,0,3.909,3.9103,3.9161,3.9224,3.9271,3.9322,3.9371,3.9401,3.9435,3.948,3.9546,3.9588,3.9669,3.9733,3.9796,3.9826,3.9828,3.9831,3.9844,3.9839,3.9826,3.9833,3.97,3.9828,3.9827,3.9826,3.9826,3.9825,3.9162,3.9209,3.9262,3.9325,3.9365,3.9411,3.9458,3.9491,3.9547,3.9616,3.9627,3.9697,3.9748,3.9832,3.9865,3.9919,3.9908,3.9928,3.9933,3.9937,3.9939,3.9818,3.993,3.993,3.993,3.993,3.993,0,3.9268,3.9302,3.936,3.9429,3.9478,3.9476,3.953,3.9571,3.9633,3.9681,3.9733,3.9808,3.9869,3.991,3.9972,4.0007,4.0009,4.0022,4.002,4.0026,3.9946,3.9928,4.0019,4.0019,4.0019,4.0019,4.0019,4.0019,3.9329,3.9408,3.9427,3.9524,3.9558,3.9627,3.9658,3.97,3.9737,3.9821,3.9872,3.9899,3.9942,4.0007,4.0063,4.0073,4.0095,4.0108,4.0118,4.0042,4.0032,4.0023,4.0006,4.0113,4.0113,4.0193,4.0194,4.0195]}]]